Time,TemperatureF,DewpointF,PressureIn,WindDirection,WindDirectionDegrees,WindSpeedMPH,WindSpeedGustMPH,Humidity,HourlyPrecipIn,Conditions,Clouds,dailyrainin,SoftwareType,DateUTC
2013-01-30 00:00:00,41.5,40.2,30.11,SSE,158,4.0,7.0,95,0.00,,SKC,0.00,VWS V13.01,2013-01-30 05:00:00,
2013-01-30 00:10:00,41.5,40.2,30.12,SSE,158,5.0,9.0,95,0.00,,SKC,0.00,VWS V13.01,2013-01-30 05:10:00,
2013-01-30 00:20:00,41.6,40.3,30.11,SSE,158,4.0,6.0,95,0.00,,SKC,0.00,VWS V13.01,2013-01-30 05:20:00,
2013-01-30 00:30:00,41.7,40.4,30.11,SSE,158,5.0,7.0,95,0.00,,SKC,0.00,VWS V13.01,2013-01-30 05:30:00,
2013-01-30 00:40:00,41.3,40.0,30.11,SSE,158,6.0,9.0,95,0.00,,SKC,0.00,VWS V13.01,2013-01-30 05:40:00,
2013-01-30 00:50:00,41.8,40.5,30.10,SSE,158,7.0,11.0,95,0.00,,SKC,0.00,VWS V13.01,2013-01-30 05:50:00,
2013-01-30 01:00:00,42.0,40.7,30.10,SSE,158,7.0,11.0,95,0.00,,SKC,0.00,VWS V13.01,2013-01-30 06:00:00,
2013-01-30 01:10:00,42.2,40.9,30.08,SSE,158,7.0,11.0,95,0.00,,SKC,0.00,VWS V13.01,2013-01-30 06:10:00,
2013-01-30 01:20:00,42.2,40.9,30.08,SSE,158,8.0,14.0,95,0.00,,SKC,0.00,VWS V13.01,2013-01-30 06:20:00,
2013-01-30 01:30:00,42.4,41.1,30.07,SSE,158,9.0,13.0,95,0.00,,SKC,0.00,VWS V13.01,2013-01-30 06:30:00,
2013-01-30 01:40:00,42.6,41.3,30.07,SSE,158,10.0,16.0,95,0.00,,SKC,0.00,VWS V13.01,2013-01-30 06:40:00,
2013-01-30 01:50:00,42.7,41.4,30.07,SSE,158,9.0,14.0,95,0.00,,SKC,0.00,VWS V13.01,2013-01-30 06:50:00,
2013-01-30 02:00:00,42.8,41.5,30.06,SSE,158,9.0,15.0,95,0.00,,SKC,0.00,VWS V13.01,2013-01-30 07:00:00,
2013-01-30 02:10:00,43.1,42.0,30.06,SSE,158,10.0,15.0,96,0.00,,SKC,0.00,VWS V13.01,2013-01-30 07:10:00,
2013-01-30 02:20:00,43.4,42.3,30.06,SSE,158,11.0,16.0,96,0.00,,SKC,0.00,VWS V13.01,2013-01-30 07:20:00,
2013-01-30 02:30:00,43.5,42.2,30.05,SE,135,10.0,15.0,95,0.00,,SKC,0.00,VWS V13.01,2013-01-30 07:30:00,
2013-01-30 02:40:00,43.6,42.5,30.04,SE,135,9.0,16.0,96,0.00,,SKC,0.00,VWS V13.01,2013-01-30 07:40:00,
2013-01-30 02:50:00,43.7,42.6,30.04,SE,135,9.0,16.0,96,0.00,,SKC,0.00,VWS V13.01,2013-01-30 07:50:00,
2013-01-30 03:00:00,43.6,42.5,30.04,SE,135,10.0,17.0,96,0.00,,SKC,0.00,VWS V13.01,2013-01-30 08:00:00,
2013-01-30 03:10:00,43.5,42.4,30.03,SE,135,10.0,16.0,96,0.00,,SKC,0.00,VWS V13.01,2013-01-30 08:10:00,
2013-01-30 03:20:00,43.5,42.4,30.02,SSE,158,11.0,19.0,96,0.00,,SKC,0.00,VWS V13.01,2013-01-30 08:20:00,
2013-01-30 03:30:00,43.5,42.4,30.02,SE,135,11.0,17.0,96,0.00,,SKC,0.00,VWS V13.01,2013-01-30 08:30:00,
2013-01-30 03:40:00,43.4,42.3,30.01,SSE,158,12.0,19.0,96,0.00,,SKC,0.00,VWS V13.01,2013-01-30 08:40:00,
2013-01-30 03:50:00,43.6,42.5,30.00,SE,135,12.0,19.0,96,0.00,,SKC,0.00,VWS V13.01,2013-01-30 08:50:00,
2013-01-30 04:00:00,43.7,42.6,30.00,SSE,158,13.0,19.0,96,0.00,,SKC,0.00,VWS V13.01,2013-01-30 09:00:00,
2013-01-30 04:10:00,43.9,42.8,30.00,SSE,158,13.0,27.0,96,0.00,,SKC,0.00,VWS V13.01,2013-01-30 09:10:00,
2013-01-30 04:20:00,43.8,42.7,29.99,SSE,158,13.0,20.0,96,0.00,,SKC,0.00,VWS V13.01,2013-01-30 09:20:00,
2013-01-30 04:30:00,43.9,42.8,29.99,SSE,158,14.0,22.0,96,0.00,,SKC,0.00,VWS V13.01,2013-01-30 09:30:00,
2013-01-30 04:40:00,44.0,43.2,29.99,SSE,158,13.0,21.0,97,0.00,,SKC,0.00,VWS V13.01,2013-01-30 09:40:00,
2013-01-30 04:50:00,44.2,43.4,29.99,SSE,158,12.0,18.0,97,0.00,,SKC,0.00,VWS V13.01,2013-01-30 09:50:00,
2013-01-30 05:00:00,44.4,43.6,29.98,SSE,158,12.0,19.0,97,0.00,,SKC,0.00,VWS V13.01,2013-01-30 10:00:00,
2013-01-30 05:10:00,44.7,43.9,29.98,SSE,158,13.0,19.0,97,0.00,,SKC,0.00,VWS V13.01,2013-01-30 10:10:00,
2013-01-30 05:20:00,45.0,44.2,29.98,SSE,158,13.0,18.0,97,0.00,,SKC,0.00,VWS V13.01,2013-01-30 10:20:00,
2013-01-30 05:30:00,45.2,44.4,29.97,SSE,158,13.0,20.0,97,0.00,,SKC,0.00,VWS V13.01,2013-01-30 10:30:00,
2013-01-30 05:40:00,45.2,44.4,29.97,SSE,158,12.0,18.0,97,0.00,,SKC,0.00,VWS V13.01,2013-01-30 10:40:00,
2013-01-30 05:50:00,45.5,44.7,29.96,SSE,158,14.0,20.0,97,0.00,,SKC,0.00,VWS V13.01,2013-01-30 10:50:00,
2013-01-30 06:00:00,45.9,45.1,29.96,SSE,158,14.0,21.0,97,0.00,,SKC,0.00,VWS V13.01,2013-01-30 11:00:00,
2013-01-30 06:10:00,46.1,45.3,29.95,SSE,158,12.0,19.0,97,0.00,,SKC,0.00,VWS V13.01,2013-01-30 11:10:00,
2013-01-30 06:20:00,46.2,45.1,29.95,SSE,158,14.0,24.0,96,0.00,,SKC,0.00,VWS V13.01,2013-01-30 11:20:00,
2013-01-30 06:30:00,47.0,46.2,29.95,South,180,18.0,24.0,97,0.00,,SKC,0.00,VWS V13.01,2013-01-30 11:30:00,
2013-01-30 06:40:00,47.1,46.0,29.95,SSE,158,16.0,21.0,96,0.00,,SKC,0.00,VWS V13.01,2013-01-30 11:40:00,
2013-01-30 06:50:00,46.9,45.8,29.95,South,180,18.0,26.0,96,0.00,,SKC,0.00,VWS V13.01,2013-01-30 11:50:00,
2013-01-30 07:00:00,47.1,46.3,29.95,South,180,17.0,24.0,97,0.00,,SKC,0.00,VWS V13.01,2013-01-30 12:00:00,
2013-01-30 07:10:00,46.9,46.1,29.95,South,180,16.0,23.0,97,0.00,,SKC,0.00,VWS V13.01,2013-01-30 12:10:00,
2013-01-30 07:20:00,47.0,46.2,29.94,South,180,18.0,22.0,97,0.00,,SKC,0.00,VWS V13.01,2013-01-30 12:20:00,
2013-01-30 07:30:00,47.2,46.4,29.93,South,180,0.0,0.0,97,0.00,,SKC,0.00,VWS V13.01,2013-01-30 12:30:00,
2013-01-30 07:40:00,47.4,46.6,29.93,South,180,0.0,0.0,97,0.00,,SKC,0.00,VWS V13.01,2013-01-30 12:40:00,
2013-01-30 07:50:00,47.7,46.9,29.92,South,180,0.0,0.0,97,0.00,,SKC,0.00,VWS V13.01,2013-01-30 12:50:00,
2013-01-30 08:00:00,47.0,46.2,29.92,South,180,0.0,0.0,97,0.00,,SKC,0.00,VWS V13.01,2013-01-30 13:00:00,
2013-01-30 08:10:00,47.0,46.2,29.91,South,180,0.0,0.0,97,0.00,,SKC,0.00,VWS V13.01,2013-01-30 13:10:00,
2013-01-30 08:20:00,47.4,46.6,29.91,South,180,0.0,0.0,97,0.00,,SKC,0.00,VWS V13.01,2013-01-30 13:20:00,
2013-01-30 08:30:00,47.9,47.1,29.90,South,180,0.0,0.0,97,0.00,,SKC,0.00,VWS V13.01,2013-01-30 13:30:00,
2013-01-30 08:40:00,48.2,47.4,29.90,South,180,0.0,0.0,97,0.00,,SKC,0.00,VWS V13.01,2013-01-30 13:40:00,
2013-01-30 08:50:00,48.5,47.7,29.89,South,180,0.0,0.0,97,0.00,,SKC,0.00,VWS V13.01,2013-01-30 13:50:00,
2013-01-30 09:00:00,48.7,47.9,29.89,South,180,0.0,0.0,97,0.00,,SKC,0.00,VWS V13.01,2013-01-30 14:00:00,
2013-01-30 09:10:00,48.8,48.0,29.88,South,180,0.0,0.0,97,0.00,,SKC,0.00,VWS V13.01,2013-01-30 14:10:00,
2013-01-30 09:20:00,48.9,48.1,29.88,South,180,0.0,0.0,97,0.00,,SKC,0.00,VWS V13.01,2013-01-30 14:20:00,
2013-01-30 09:30:00,48.7,47.9,29.86,South,180,0.0,0.0,97,0.00,,SKC,0.00,VWS V13.01,2013-01-30 14:30:00,
2013-01-30 09:40:00,48.2,47.4,29.86,South,180,0.0,0.0,97,0.00,,SKC,0.00,VWS V13.01,2013-01-30 14:40:00,
2013-01-30 09:50:00,48.3,47.5,29.86,South,180,0.0,0.0,97,0.00,,SKC,0.00,VWS V13.01,2013-01-30 14:50:00,
2013-01-30 10:00:00,48.8,48.0,29.86,South,180,0.0,0.0,97,0.00,,SKC,0.00,VWS V13.01,2013-01-30 15:00:00,
2013-01-30 10:10:00,49.1,48.3,29.86,South,180,0.0,0.0,97,0.00,,SKC,0.00,VWS V13.01,2013-01-30 15:10:00,
2013-01-30 10:20:00,49.4,48.6,29.86,South,180,0.0,0.0,97,0.00,,SKC,0.00,VWS V13.01,2013-01-30 15:20:00,
2013-01-30 10:30:00,49.5,48.7,29.85,South,180,0.0,0.0,97,0.00,,SKC,0.00,VWS V13.01,2013-01-30 15:30:00,
2013-01-30 10:40:00,49.6,48.8,29.85,South,180,0.0,0.0,97,0.00,,SKC,0.00,VWS V13.01,2013-01-30 15:40:00,
2013-01-30 10:50:00,49.6,48.8,29.84,South,180,0.0,0.0,97,0.00,,SKC,0.00,VWS V13.01,2013-01-30 15:50:00,
2013-01-30 11:00:00,48.6,47.8,29.83,South,180,0.0,0.0,97,0.00,,SKC,0.00,VWS V13.01,2013-01-30 16:00:00,
2013-01-30 11:10:00,48.7,47.9,29.83,South,180,0.0,0.0,97,0.00,,SKC,0.00,VWS V13.01,2013-01-30 16:10:00,
2013-01-30 11:20:00,49.2,48.7,29.82,South,180,0.0,0.0,98,0.00,,SKC,0.00,VWS V13.01,2013-01-30 16:20:00,
2013-01-30 11:30:00,49.4,48.9,29.81,South,180,0.0,0.0,98,0.00,,SKC,0.00,VWS V13.01,2013-01-30 16:30:00,
2013-01-30 11:40:00,49.7,49.2,29.79,South,180,0.0,0.0,98,0.00,,SKC,0.00,VWS V13.01,2013-01-30 16:40:00,
2013-01-30 11:50:00,50.0,49.5,29.78,South,180,0.0,0.0,98,0.00,,SKC,0.00,VWS V13.01,2013-01-30 16:50:00,
2013-01-30 12:00:00,50.1,49.6,29.77,South,180,0.0,0.0,98,0.00,,SKC,0.00,VWS V13.01,2013-01-30 17:00:00,
2013-01-30 12:10:00,50.0,49.2,29.77,South,180,0.0,0.0,97,0.00,,SKC,0.00,VWS V13.01,2013-01-30 17:10:00,
2013-01-30 12:20:00,50.0,49.2,29.77,South,180,0.0,0.0,97,0.00,,SKC,0.00,VWS V13.01,2013-01-30 17:20:00,
2013-01-30 12:30:00,50.0,49.2,29.76,South,180,0.0,0.0,97,0.00,,SKC,0.00,VWS V13.01,2013-01-30 17:30:00,
2013-01-30 12:40:00,49.9,49.1,29.75,South,180,0.0,0.0,97,0.00,,SKC,0.00,VWS V13.01,2013-01-30 17:40:00,
2013-01-30 12:50:00,50.2,49.4,29.75,South,180,0.0,0.0,97,0.00,,SKC,0.00,VWS V13.01,2013-01-30 17:50:00,
2013-01-30 13:00:00,50.5,49.7,29.74,South,180,0.0,0.0,97,0.00,,SKC,0.00,VWS V13.01,2013-01-30 18:00:00,
2013-01-30 13:10:00,51.0,50.2,29.73,South,180,0.0,0.0,97,0.00,,SKC,0.00,VWS V13.01,2013-01-30 18:10:00,
2013-01-30 13:20:00,50.5,49.7,29.72,South,180,0.0,0.0,97,0.00,,SKC,0.00,VWS V13.01,2013-01-30 18:20:00,
2013-01-30 13:30:00,50.6,49.8,29.72,South,180,0.0,0.0,97,0.00,,SKC,0.00,VWS V13.01,2013-01-30 18:30:00,
2013-01-30 13:40:00,50.8,50.0,29.71,SSW,202,27.0,35.0,97,0.00,,SKC,0.00,VWS V13.01,2013-01-30 18:40:00,
2013-01-30 13:50:00,50.9,50.1,29.71,SSW,202,27.0,36.0,97,0.00,,SKC,0.00,VWS V13.01,2013-01-30 18:50:00,
2013-01-30 14:00:00,51.0,50.2,29.72,SSW,202,28.0,36.0,97,0.00,,SKC,0.00,VWS V13.01,2013-01-30 19:00:00,
2013-01-30 14:10:00,51.3,50.5,29.71,SSW,202,28.0,39.0,97,0.00,,SKC,0.00,VWS V13.01,2013-01-30 19:10:00,
2013-01-30 14:20:00,51.4,50.6,29.71,SSW,202,27.0,37.0,97,0.00,,SKC,0.00,VWS V13.01,2013-01-30 19:20:00,
2013-01-30 14:30:00,51.4,50.6,29.71,SSW,202,26.0,35.0,97,0.00,,SKC,0.00,VWS V13.01,2013-01-30 19:30:00,
2013-01-30 14:40:00,51.2,50.7,29.71,SSW,202,24.0,32.0,98,0.00,,SKC,0.00,VWS V13.01,2013-01-30 19:40:00,
2013-01-30 14:50:00,51.2,50.7,29.71,SSW,204,28.0,28.0,98,0.00,,SKC,0.00,VWS V13.01,2013-01-30 19:50:00,
2013-01-30 14:51:00,51.2,50.7,29.71,SSW,204,28.0,28.0,98,0.00,,SKC,0.00,VWS V13.01,2013-01-30 19:51:00,
2013-01-30 14:56:00,51.2,50.7,29.70,SSW,207,25.0,33.0,98,0.00,,SKC,0.00,VWS V13.01,2013-01-30 19:56:00,
2013-01-30 15:01:00,51.1,50.6,29.70,SW,215,33.0,33.0,98,0.00,,SKC,0.00,VWS V13.01,2013-01-30 20:01:00,
2013-01-30 15:06:00,51.0,50.5,29.70,SW,215,27.0,34.0,98,0.00,,SKC,0.00,VWS V13.01,2013-01-30 20:06:00,
2013-01-30 15:11:00,50.8,50.3,29.70,SSW,213,33.0,33.0,98,0.00,,SKC,0.00,VWS V13.01,2013-01-30 20:11:00,
2013-01-30 15:16:00,51.0,50.5,29.70,SSW,194,31.0,35.0,98,0.00,,SKC,0.00,VWS V13.01,2013-01-30 20:16:00,
2013-01-30 15:21:00,50.7,50.2,29.69,SSW,208,25.0,30.0,98,0.00,,SKC,0.00,VWS V13.01,2013-01-30 20:21:00,
2013-01-30 15:26:00,50.5,50.0,29.69,South,186,31.0,39.0,98,0.00,,SKC,0.00,VWS V13.01,2013-01-30 20:26:00,
2013-01-30 15:31:00,50.3,49.8,29.68,SSW,200,21.0,34.0,98,0.00,,SKC,0.00,VWS V13.01,2013-01-30 20:31:00,
2013-01-30 15:36:00,50.1,49.6,29.68,SW,215,22.0,34.0,98,0.00,,SKC,0.00,VWS V13.01,2013-01-30 20:36:00,
2013-01-30 15:41:00,49.9,49.4,29.68,SSW,201,30.0,30.0,98,0.00,,SKC,0.00,VWS V13.01,2013-01-30 20:41:00,
2013-01-30 15:46:00,49.9,49.4,29.68,SSW,195,22.0,30.0,98,0.00,,SKC,0.00,VWS V13.01,2013-01-30 20:46:00,
2013-01-30 15:51:00,49.8,49.3,29.68,SSW,194,29.0,29.0,98,0.00,,SKC,0.00,VWS V13.01,2013-01-30 20:51:00,
2013-01-30 15:56:00,50.3,49.8,29.68,SSW,206,22.0,35.0,98,0.00,,SKC,0.00,VWS V13.01,2013-01-30 20:56:00,
2013-01-30 16:01:00,50.1,49.6,29.67,SW,214,23.0,26.0,98,0.00,,SKC,0.00,VWS V13.01,2013-01-30 21:01:00,
2013-01-30 16:06:00,50.3,49.8,29.67,SSW,207,26.0,35.0,98,0.00,,SKC,0.00,VWS V13.01,2013-01-30 21:06:00,
2013-01-30 16:11:00,50.1,49.6,29.68,SW,215,33.0,33.0,98,0.00,,SKC,0.00,VWS V13.01,2013-01-30 21:11:00,
2013-01-30 16:16:00,50.3,49.8,29.67,SSW,208,28.0,37.0,98,0.00,,SKC,0.00,VWS V13.01,2013-01-30 21:16:00,
2013-01-30 16:21:00,50.1,49.6,29.67,SSW,196,28.0,32.0,98,0.00,,SKC,0.00,VWS V13.01,2013-01-30 21:21:00,
2013-01-30 16:26:00,50.1,49.6,29.67,SSW,202,24.0,35.0,98,0.00,,SKC,0.00,VWS V13.01,2013-01-30 21:26:00,
2013-01-30 16:31:00,50.4,49.9,29.67,SSW,194,27.0,31.0,98,0.00,,SKC,0.00,VWS V13.01,2013-01-30 21:31:00,
2013-01-30 16:37:00,50.4,49.9,29.67,SSW,203,29.0,36.0,98,0.00,,SKC,0.00,VWS V13.01,2013-01-30 21:37:00,
2013-01-30 16:42:00,50.6,50.1,29.67,SSW,192,33.0,33.0,98,0.00,,SKC,0.00,VWS V13.01,2013-01-30 21:42:00,
2013-01-30 16:46:00,51.0,50.5,29.67,SSW,199,24.0,36.0,98,0.00,,SKC,0.00,VWS V13.01,2013-01-30 21:46:00,
2013-01-30 16:51:00,51.2,50.7,29.67,SW,215,25.0,33.0,98,0.00,,SKC,0.00,VWS V13.01,2013-01-30 21:51:00,
2013-01-30 16:56:00,51.3,50.8,29.67,SSW,200,23.0,37.0,98,0.00,,SKC,0.00,VWS V13.01,2013-01-30 21:56:00,
2013-01-30 17:02:00,51.3,50.8,29.66,SSW,195,26.0,31.0,98,0.00,,SKC,0.00,VWS V13.01,2013-01-30 22:02:00,
2013-01-30 17:07:00,51.4,50.9,29.67,SSW,193,24.0,35.0,98,0.00,,SKC,0.00,VWS V13.01,2013-01-30 22:07:00,
2013-01-30 17:12:00,51.4,50.9,29.67,SSW,196,22.0,31.0,98,0.00,,SKC,0.00,VWS V13.01,2013-01-30 22:12:00,
2013-01-30 17:16:00,50.9,50.4,29.67,SSW,203,27.0,33.0,98,0.00,,SKC,0.00,VWS V13.01,2013-01-30 22:16:00,
2013-01-30 17:22:00,50.8,50.3,29.67,South,188,27.0,30.0,98,0.00,,SKC,0.00,VWS V13.01,2013-01-30 22:22:00,
2013-01-30 17:27:00,50.9,50.4,29.67,SSW,211,28.0,32.0,98,0.00,,SKC,0.00,VWS V13.01,2013-01-30 22:27:00,
2013-01-30 17:32:00,50.8,50.3,29.67,SSW,202,25.0,33.0,98,0.00,,SKC,0.00,VWS V13.01,2013-01-30 22:32:00,
2013-01-30 17:37:00,50.8,50.3,29.66,SSW,198,26.0,35.0,98,0.00,,SKC,0.00,VWS V13.01,2013-01-30 22:37:00,
2013-01-30 17:42:00,50.8,50.3,29.66,SSW,209,28.0,37.0,98,0.00,,SKC,0.00,VWS V13.01,2013-01-30 22:42:00,
2013-01-30 17:47:00,51.0,50.5,29.65,SSW,196,33.0,41.0,98,0.00,,SKC,0.00,VWS V13.01,2013-01-30 22:47:00,
2013-01-30 17:52:00,50.9,50.4,29.65,South,182,32.0,35.0,98,0.00,,SKC,0.00,VWS V13.01,2013-01-30 22:52:00,
2013-01-30 17:57:00,50.8,50.3,29.65,South,186,34.0,42.0,98,0.00,,SKC,0.00,VWS V13.01,2013-01-30 22:57:00,
2013-01-30 18:02:00,51.0,50.5,29.64,SSW,195,32.0,40.0,98,0.00,,SKC,0.00,VWS V13.01,2013-01-30 23:02:00,
2013-01-30 18:07:00,51.0,50.5,29.64,South,183,25.0,42.0,98,0.00,,SKC,0.00,VWS V13.01,2013-01-30 23:07:00,
2013-01-30 18:12:00,50.8,50.3,29.65,South,188,23.0,34.0,98,0.00,,SKC,0.00,VWS V13.01,2013-01-30 23:12:00,
2013-01-30 18:17:00,50.5,50.0,29.64,SSW,194,33.0,37.0,98,0.00,,SKC,0.00,VWS V13.01,2013-01-30 23:17:00,
2013-01-30 18:22:00,50.2,49.7,29.64,SSW,195,29.0,46.0,98,0.00,,SKC,0.00,VWS V13.01,2013-01-30 23:22:00,
2013-01-30 18:27:00,50.2,49.7,29.64,SSW,200,30.0,46.0,98,0.00,,SKC,0.00,VWS V13.01,2013-01-30 23:27:00,
2013-01-30 18:32:00,50.4,49.9,29.64,SSW,194,31.0,41.0,98,0.00,,SKC,0.00,VWS V13.01,2013-01-30 23:32:00,
2013-01-30 18:37:00,50.5,50.0,29.64,SSW,200,31.0,41.0,98,0.00,,SKC,0.00,VWS V13.01,2013-01-30 23:37:00,
2013-01-30 18:42:00,50.8,50.3,29.64,SW,214,30.0,40.0,98,0.00,,SKC,0.00,VWS V13.01,2013-01-30 23:42:00,
2013-01-30 18:47:00,51.0,50.5,29.64,South,188,31.0,40.0,98,0.00,,SKC,0.00,VWS V13.01,2013-01-30 23:47:00,
2013-01-30 18:52:00,50.8,50.3,29.63,SSW,199,31.0,36.0,98,0.00,,SKC,0.00,VWS V13.01,2013-01-30 23:52:00,
2013-01-30 18:57:00,50.7,50.2,29.63,SSW,195,34.0,46.0,98,0.00,,SKC,0.00,VWS V13.01,2013-01-30 23:57:00,
2013-01-30 19:02:00,50.6,50.1,29.63,South,180,30.0,41.0,98,0.00,,SKC,0.00,VWS V13.01,2013-01-31 00:02:00,
2013-01-30 19:07:00,50.5,50.0,29.63,South,188,29.0,41.0,98,0.00,,SKC,0.00,VWS V13.01,2013-01-31 00:07:00,
2013-01-30 19:12:00,50.4,49.9,29.63,SSW,198,28.0,38.0,98,0.00,,SKC,0.00,VWS V13.01,2013-01-31 00:12:00,
2013-01-30 19:17:00,50.4,49.9,29.63,SSW,200,30.0,40.0,98,0.00,,SKC,0.00,VWS V13.01,2013-01-31 00:17:00,
2013-01-30 19:22:00,50.6,50.1,29.62,South,190,26.0,36.0,98,0.00,,SKC,0.00,VWS V13.01,2013-01-31 00:22:00,
2013-01-30 19:27:00,50.5,50.0,29.62,SSW,192,29.0,40.0,98,0.00,,SKC,0.00,VWS V13.01,2013-01-31 00:27:00,
2013-01-30 19:32:00,50.7,50.2,29.62,SSW,192,30.0,40.0,98,0.00,,SKC,0.00,VWS V13.01,2013-01-31 00:32:00,
2013-01-30 19:37:00,50.7,50.2,29.62,SSW,198,26.0,40.0,98,0.00,,SKC,0.00,VWS V13.01,2013-01-31 00:37:00,
2013-01-30 19:42:00,50.5,50.0,29.62,SSW,211,30.0,34.0,98,0.00,,SKC,0.00,VWS V13.01,2013-01-31 00:42:00,
2013-01-30 19:47:00,50.7,50.2,29.62,South,185,31.0,34.0,98,0.00,,SKC,0.00,VWS V13.01,2013-01-31 00:47:00,
2013-01-30 19:52:00,50.7,50.2,29.62,SSW,207,29.0,33.0,98,0.00,,SKC,0.00,VWS V13.01,2013-01-31 00:52:00,
2013-01-30 19:58:00,50.5,50.0,29.62,SSW,201,27.0,34.0,98,0.00,,SKC,0.00,VWS V13.01,2013-01-31 00:58:00,
2013-01-30 20:03:00,50.6,50.1,29.62,SW,214,33.0,34.0,98,0.00,,SKC,0.00,VWS V13.01,2013-01-31 01:03:00,
2013-01-30 20:08:00,50.8,50.3,29.61,South,188,23.0,35.0,98,0.00,,SKC,0.00,VWS V13.01,2013-01-31 01:08:00,
2013-01-30 20:13:00,50.4,49.9,29.61,SSW,198,29.0,33.0,98,0.00,,SKC,0.00,VWS V13.01,2013-01-31 01:13:00,
2013-01-30 20:18:00,50.4,49.9,29.61,SSW,210,31.0,40.0,98,0.00,,SKC,0.00,VWS V13.01,2013-01-31 01:18:00,
2013-01-30 20:23:00,50.4,49.9,29.60,SSW,192,27.0,40.0,98,0.00,,SKC,0.00,VWS V13.01,2013-01-31 01:23:00,
2013-01-30 20:28:00,50.6,50.1,29.60,SSW,204,31.0,40.0,98,0.00,,SKC,0.00,VWS V13.01,2013-01-31 01:28:00,
2013-01-30 20:33:00,50.5,50.0,29.60,SSW,207,32.0,35.0,98,0.00,,SKC,0.00,VWS V13.01,2013-01-31 01:33:00,
2013-01-30 20:38:00,50.4,49.9,29.59,SW,219,36.0,36.0,98,0.00,,SKC,0.00,VWS V13.01,2013-01-31 01:38:00,
2013-01-30 20:43:00,50.4,49.9,29.59,SW,215,25.0,33.0,98,0.00,,SKC,0.00,VWS V13.01,2013-01-31 01:43:00,
2013-01-30 20:48:00,50.8,50.3,29.59,SSW,201,25.0,35.0,98,0.00,,SKC,0.00,VWS V13.01,2013-01-31 01:48:00,
2013-01-30 20:53:00,50.6,50.1,29.58,South,178,26.0,32.0,98,0.00,,SKC,0.00,VWS V13.01,2013-01-31 01:53:00,
2013-01-30 20:58:00,50.5,50.0,29.58,SSW,196,30.0,38.0,98,0.00,,SKC,0.00,VWS V13.01,2013-01-31 01:58:00,
2013-01-30 21:03:00,50.6,50.1,29.58,SSW,193,23.0,33.0,98,0.00,,SKC,0.00,VWS V13.01,2013-01-31 02:03:00,
2013-01-30 21:08:00,50.8,50.3,29.58,SW,214,24.0,35.0,98,0.00,,SKC,0.00,VWS V13.01,2013-01-31 02:08:00,
2013-01-30 21:13:00,51.0,50.5,29.57,SSW,197,36.0,38.0,98,0.00,,SKC,0.00,VWS V13.01,2013-01-31 02:13:00,
2013-01-30 21:18:00,50.8,50.3,29.57,SSW,207,31.0,40.0,98,0.00,,SKC,0.00,VWS V13.01,2013-01-31 02:18:00,
2013-01-30 21:23:00,50.9,50.4,29.56,SSW,202,34.0,35.0,98,0.00,,SKC,0.00,VWS V13.01,2013-01-31 02:23:00,
2013-01-30 21:28:00,50.7,50.2,29.56,SSW,211,26.0,40.0,98,0.00,,SKC,0.00,VWS V13.01,2013-01-31 02:28:00,
2013-01-30 21:33:00,50.8,50.3,29.56,SSW,207,33.0,39.0,98,0.00,,SKC,0.00,VWS V13.01,2013-01-31 02:33:00,
2013-01-30 21:38:00,50.9,50.4,29.56,SSW,202,29.0,40.0,98,0.00,,SKC,0.00,VWS V13.01,2013-01-31 02:38:00,
2013-01-30 21:43:00,50.8,50.3,29.56,SSW,200,33.0,39.0,98,0.00,,SKC,0.00,VWS V13.01,2013-01-31 02:43:00,
2013-01-30 21:48:00,51.0,50.5,29.55,SSW,213,33.0,41.0,98,0.00,,SKC,0.00,VWS V13.01,2013-01-31 02:48:00,
2013-01-30 21:53:00,50.8,50.3,29.55,SSW,212,33.0,36.0,98,0.00,,SKC,0.00,VWS V13.01,2013-01-31 02:53:00,
2013-01-30 21:58:00,50.7,50.2,29.55,SSW,198,28.0,38.0,98,0.00,,SKC,0.00,VWS V13.01,2013-01-31 02:58:00,
2013-01-30 22:03:00,50.9,50.4,29.54,SSW,199,26.0,35.0,98,0.00,,SKC,0.00,VWS V13.01,2013-01-31 03:03:00,
2013-01-30 22:08:00,51.0,50.5,29.54,SSW,198,32.0,37.0,98,0.00,,SKC,0.00,VWS V13.01,2013-01-31 03:08:00,
2013-01-30 22:13:00,51.2,50.7,29.53,South,184,31.0,38.0,98,0.00,,SKC,0.00,VWS V13.01,2013-01-31 03:13:00,
2013-01-30 22:18:00,51.3,50.8,29.53,SSW,192,26.0,39.0,98,0.00,,SKC,0.00,VWS V13.01,2013-01-31 03:18:00,
2013-01-30 22:23:00,51.2,50.7,29.53,South,178,29.0,38.0,98,0.00,,SKC,0.00,VWS V13.01,2013-01-31 03:23:00,
2013-01-30 22:28:00,51.5,51.0,29.53,SSW,207,40.0,40.0,98,0.00,,SKC,0.00,VWS V13.01,2013-01-31 03:28:00,
2013-01-30 22:33:00,51.2,50.4,29.53,SSW,195,42.0,42.0,97,0.00,,SKC,0.00,VWS V13.01,2013-01-31 03:33:00,
2013-01-30 22:38:00,51.5,50.7,29.53,SSW,198,39.0,50.0,97,0.00,,SKC,0.00,VWS V13.01,2013-01-31 03:38:00,
2013-01-30 22:43:00,51.4,50.6,29.53,South,186,32.0,48.0,97,0.00,,SKC,0.00,VWS V13.01,2013-01-31 03:43:00,
2013-01-30 22:48:00,51.3,50.5,29.53,South,185,40.0,48.0,97,0.00,,SKC,0.00,VWS V13.01,2013-01-31 03:48:00,
2013-01-30 22:53:00,51.1,50.3,29.53,SSW,193,24.0,41.0,97,0.00,,SKC,0.00,VWS V13.01,2013-01-31 03:53:00,
2013-01-30 22:58:00,51.2,50.4,29.52,South,184,37.0,45.0,97,0.00,,SKC,0.00,VWS V13.01,2013-01-31 03:58:00,
2013-01-30 23:03:00,51.4,50.6,29.52,SSW,193,31.0,41.0,97,0.00,,SKC,0.00,VWS V13.01,2013-01-31 04:03:00,
2013-01-30 23:08:00,51.5,50.7,29.52,South,176,34.0,41.0,97,0.00,,SKC,0.00,VWS V13.01,2013-01-31 04:08:00,
2013-01-30 23:13:00,51.4,50.6,29.52,SSW,196,32.0,40.0,97,0.00,,SKC,0.00,VWS V13.01,2013-01-31 04:13:00,
2013-01-30 23:18:00,51.4,50.6,29.51,SSW,193,28.0,41.0,97,0.00,,SKC,0.00,VWS V13.01,2013-01-31 04:18:00,
2013-01-30 23:23:00,51.5,50.7,29.51,South,180,26.0,38.0,97,0.00,,SKC,0.00,VWS V13.01,2013-01-31 04:23:00,
2013-01-30 23:28:00,51.6,51.1,29.51,South,186,27.0,38.0,98,0.00,,SKC,0.00,VWS V13.01,2013-01-31 04:28:00,
2013-01-30 23:33:00,51.5,50.7,29.50,South,183,36.0,38.0,97,0.00,,SKC,0.00,VWS V13.01,2013-01-31 04:33:00,
2013-01-30 23:38:00,51.4,50.6,29.50,SSW,196,44.0,44.0,97,0.00,,SKC,0.00,VWS V13.01,2013-01-31 04:38:00,
2013-01-30 23:43:00,51.4,50.6,29.50,SSW,200,29.0,39.0,97,0.00,,SKC,0.00,VWS V13.01,2013-01-31 04:43:00,
2013-01-30 23:48:00,51.5,50.7,29.50,South,179,33.0,39.0,97,0.00,,SKC,0.00,VWS V13.01,2013-01-31 04:48:00,
2013-01-30 23:53:00,51.1,50.3,29.49,South,182,26.0,37.0,97,0.00,,SKC,0.00,VWS V13.01,2013-01-31 04:53:00,
2013-01-30 23:58:00,51.1,50.6,29.49,South,183,27.0,37.0,98,0.00,,SKC,0.00,VWS V13.01,2013-01-31 04:58:00,